| time (UTC) | temp F | wind direction | speed knots | gust knots | rain 1hr in | rain 24hr in | rain mn in | humidity % | barometer mb |
| 20260508210030 | 66 | 131 | 0.9 | 8.7 | 0.00 | 0.00 | 0.00 | 56 | 1015.2 |
| 20260508204533 | 66 | 225 | 1.7 | 7.8 | 0.00 | 0.00 | 0.00 | 54 | 1015.3 |
| 20260508203028 | 66 | 25 | 2.6 | 7.0 | 0.00 | 0.00 | 0.00 | 53 | 1015.4 |
| 20260508201529 | 66 | 46 | 1.7 | 8.7 | 0.00 | 0.00 | 0.00 | 55 | 1015.5 |
| 20260508200028 | 67 | 69 | 2.6 | 11.3 | 0.00 | 0.00 | 0.00 | 52 | 1015.8 |
| 20260508194531 | 67 | 22 | 2.6 | 8.7 | 0.00 | 0.00 | 0.00 | 51 | 1015.9 |
| 20260508193028 | 67 | 86 | 1.7 | 8.7 | 0.00 | 0.00 | 0.00 | 52 | 1016.5 |
| 20260508191531 | 66 | 70 | 1.7 | 8.7 | 0.00 | 0.00 | 0.00 | 50 | 1016.6 |
| 20260508190031 | 67 | 74 | 0.9 | 5.2 | 0.00 | 0.00 | 0.00 | 52 | 1016.9 |
| 20260508184531 | 67 | 79 | 1.7 | 10.4 | 0.00 | 0.00 | 0.00 | 52 | 1017.0 |
| 20260508183030 | 67 | 52 | 2.6 | 8.7 | 0.00 | 0.00 | 0.00 | 51 | 1017.2 |
| 20260508181530 | 67 | 148 | 2.6 | 9.6 | 0.00 | 0.00 | 0.00 | 49 | 1017.4 |
| 20260508180030 | 66 | 67 | 3.5 | 9.6 | 0.00 | 0.00 | 0.00 | 49 | 1017.8 |
| 20260508174528 | 65 | 114 | 2.6 | 11.3 | 0.00 | 0.00 | 0.00 | 47 | 1017.7 |
| 20260508173029 | 65 | 193 | 0.9 | 9.6 | 0.00 | 0.00 | 0.00 | 49 | 1018.0 |
| 20260508171539 | 65 | 186 | 3.5 | 7.8 | 0.00 | 0.00 | 0.00 | 51 | 1018.1 |
| 20260508170030 | 65 | 5 | 1.7 | 8.7 | 0.00 | 0.00 | 0.00 | 50 | 1018.4 |
| 20260508164528 | 65 | 352 | 0.9 | 7.8 | 0.00 | 0.00 | 0.00 | 54 | 1018.7 |
| 20260508163032 | 64 | 61 | 0.9 | 7.8 | 0.00 | 0.00 | 0.00 | 54 | 1018.7 |
| 20260508161530 | 64 | 292 | 2.6 | 7.0 | 0.00 | 0.00 | 0.00 | 53 | 1018.8 |
| 20260508160052 | 63 | 121 | 0.9 | 7.8 | 0.00 | 0.00 | 0.00 | 57 | 1019.1 |
| 20260508154528 | 63 | 262 | 1.7 | 7.0 | 0.00 | 0.01 | 0.00 | 55 | 1019.3 |
| 20260508153033 | 63 | 67 | 0.9 | 5.2 | 0.00 | 0.01 | 0.00 | 56 | 1019.4 |
| 20260508151530 | 61 | 78 | 1.7 | 6.1 | 0.00 | 0.01 | 0.00 | 56 | 1019.3 |
| 20260508150034 | 61 | 102 | 0.0 | 3.5 | 0.00 | 0.01 | 0.00 | 58 | 1019.4 |
| 20260508144527 | 60 | 0 | 0.9 | 5.2 | 0.00 | 0.01 | 0.00 | 57 | 1019.5 |
| 20260508143039 | 60 | 0 | 0.0 | 4.3 | 0.00 | 0.01 | 0.00 | 56 | 1019.5 |
| 20260508141537 | 60 | 0 | 0.0 | 0.0 | 0.00 | 0.01 | 0.00 | 60 | 1019.5 |
| 20260508140030 | 59 | 205 | 0.9 | 3.5 | 0.00 | 0.01 | 0.00 | 61 | 1019.7 |
| 20260508134532 | 58 | 207 | 1.7 | 3.5 | 0.00 | 0.01 | 0.00 | 63 | 1019.6 |
| 20260508133028 | 57 | 221 | 1.7 | 4.3 | 0.00 | 0.01 | 0.00 | 65 | 1019.6 |
| 20260508131529 | 55 | 193 | 1.7 | 5.2 | 0.00 | 0.01 | 0.00 | 67 | 1019.5 |
| 20260508130029 | 55 | 227 | 0.9 | 4.3 | 0.00 | 0.01 | 0.00 | 70 | 1019.3 |
| 20260508124529 | 54 | 316 | 0.9 | 4.3 | 0.00 | 0.04 | 0.00 | 71 | 1019.3 |
| 20260508123028 | 53 | 0 | 0.0 | 4.3 | 0.00 | 0.04 | 0.00 | 73 | 1019.2 |
| 20260508121550 | 53 | 208 | 1.7 | 3.5 | 0.00 | 0.04 | 0.00 | 74 | 1019.1 |
| 20260508120034 | 51 | 206 | 0.9 | 3.5 | 0.00 | 0.04 | 0.00 | 77 | 1018.8 |
| 20260508114530 | 49 | 0 | 0.0 | 0.9 | 0.00 | 0.13 | 0.00 | 84 | 1018.6 |
| 20260508113028 | 47 | 0 | 0.0 | 0.9 | 0.00 | 0.13 | 0.00 | 88 | 1018.3 |
| 20260508111533 | 46 | 0 | 0.0 | 0.9 | 0.00 | 0.13 | 0.00 | 89 | 1018.1 |
| 20260508110036 | 45 | 0 | 0.0 | 0.9 | 0.00 | 0.13 | 0.00 | 89 | 1017.7 |
| 20260508104528 | 45 | 0 | 0.0 | 0.9 | 0.00 | 0.14 | 0.00 | 88 | 1017.6 |
| 20260508103031 | 45 | 0 | 0.0 | 2.6 | 0.00 | 0.14 | 0.00 | 88 | 1017.2 |
| 20260508101534 | 46 | 0 | 0.0 | 1.7 | 0.00 | 0.14 | 0.00 | 86 | 1016.9 |
| 20260508100027 | 47 | 0 | 0.0 | 1.7 | 0.00 | 0.14 | 0.00 | 85 | 1016.6 |
| 20260508094529 | 48 | 0 | 0.0 | 1.7 | 0.00 | 0.14 | 0.00 | 83 | 1016.6 |
| 20260508093032 | 48 | 0 | 0.0 | 1.7 | 0.00 | 0.14 | 0.00 | 82 | 1016.6 |
| 20260508091530 | 49 | 0 | 0.0 | 1.7 | 0.00 | 0.14 | 0.00 | 81 | 1016.6 |
| 20260508090028 | 50 | 0 | 0.0 | 1.7 | 0.00 | 0.14 | 0.00 | 79 | 1016.6 |
| 20260508084528 | 50 | 0 | 0.0 | 1.7 | 0.00 | 0.17 | 0.00 | 78 | 1016.4 |
| 20260508083112 | 51 | 0 | 0.0 | 2.6 | 0.00 | 0.17 | 0.00 | 78 | 1016.3 |
| 20260508081530 | 51 | 186 | 0.0 | 3.5 | 0.00 | 0.17 | 0.00 | 77 | 1016.1 |
| 20260508080031 | 52 | 0 | 0.0 | 2.6 | 0.00 | 0.17 | 0.00 | 75 | 1016.1 |
| 20260508074533 | 52 | 207 | 0.9 | 4.3 | 0.00 | 0.17 | 0.00 | 74 | 1016.0 |
| 20260508073033 | 53 | 0 | 0.9 | 3.5 | 0.00 | 0.17 | 0.00 | 74 | 1015.8 |
| 20260508071532 | 53 | 272 | 0.9 | 5.2 | 0.00 | 0.17 | 0.00 | 73 | 1015.9 |
| 20260508070030 | 53 | 300 | 0.9 | 7.8 | 0.00 | 0.17 | 0.00 | 74 | 1015.7 |
| 20260508064545 | 53 | 197 | 0.0 | 5.2 | 0.00 | 0.18 | 0.00 | 74 | 1015.7 |
| 20260508063033 | 52 | 0 | 0.0 | 2.6 | 0.00 | 0.18 | 0.00 | 74 | 1015.7 |
| 20260508061532 | 52 | 243 | 0.0 | 3.5 | 0.00 | 0.18 | 0.00 | 75 | 1015.6 |
| 20260508060030 | 52 | 234 | 0.0 | 0.9 | 0.00 | 0.18 | 0.00 | 76 | 1015.7 |
| 20260508054530 | 52 | 0 | 0.9 | 4.3 | 0.00 | 0.22 | 0.00 | 75 | 1015.8 |
| 20260508053027 | 53 | 0 | 0.0 | 1.7 | 0.00 | 0.22 | 0.00 | 75 | 1015.8 |
| 20260508051531 | 53 | 0 | 0.0 | 2.6 | 0.00 | 0.22 | 0.00 | 74 | 1015.6 |
| 20260508050027 | 53 | 0 | 0.0 | 5.2 | 0.00 | 0.22 | 0.00 | 74 | 1015.4 |
| 20260508044528 | 54 | 209 | 0.0 | 3.5 | 0.00 | 0.27 | 0.00 | 73 | 1015.3 |
| 20260508043033 | 54 | 0 | 0.0 | 6.1 | 0.00 | 0.27 | 0.00 | 73 | 1015.3 |
| 20260508041529 | 54 | 0 | 0.0 | 4.3 | 0.00 | 0.27 | 0.00 | 73 | 1015.2 |
| 20260508040035 | 54 | 0 | 0.0 | 3.5 | 0.00 | 0.27 | 0.00 | 73 | 1015.2 |
| 20260508034530 | 54 | 228 | 0.9 | 6.1 | 0.00 | 0.27 | 0.27 | 72 | 1015.3 |
| 20260508033027 | 55 | 218 | 0.9 | 9.6 | 0.00 | 0.27 | 0.27 | 72 | 1015.2 |
| 20260508031530 | 55 | 223 | 1.7 | 7.8 | 0.00 | 0.27 | 0.27 | 72 | 1015.3 |
| 20260508030034 | 55 | 0 | 0.9 | 7.8 | 0.00 | 0.27 | 0.27 | 72 | 1015.3 |
| 20260508024530 | 55 | 271 | 2.6 | 7.8 | 0.00 | 0.31 | 0.27 | 72 | 1015.1 |
| 20260508023035 | 55 | 204 | 1.7 | 9.6 | 0.00 | 0.31 | 0.27 | 71 | 1014.9 |
| 20260508021531 | 54 | 147 | 2.6 | 7.0 | 0.00 | 0.31 | 0.27 | 72 | 1014.6 |
| 20260508020028 | 55 | 234 | 1.7 | 6.1 | 0.00 | 0.31 | 0.27 | 71 | 1014.5 |
| 20260508014534 | 55 | 230 | 0.0 | 7.0 | 0.00 | 0.33 | 0.27 | 71 | 1014.5 |
| 20260508013030 | 55 | 198 | 0.0 | 6.1 | 0.00 | 0.33 | 0.27 | 69 | 1013.9 |
| 20260508011536 | 55 | 219 | 1.7 | 9.6 | 0.00 | 0.33 | 0.27 | 69 | 1013.6 |
| 20260508010033 | 56 | 74 | 3.5 | 10.4 | 0.00 | 0.33 | 0.27 | 69 | 1013.4 |
| 20260508004529 | 56 | 215 | 5.2 | 13.0 | 0.00 | 0.40 | 0.27 | 68 | 1013.2 |
| 20260508003037 | 56 | 238 | 4.3 | 11.3 | 0.00 | 0.40 | 0.27 | 69 | 1013.1 |
| 20260508001536 | 57 | 198 | 3.5 | 10.4 | 0.00 | 0.40 | 0.27 | 68 | 1012.9 |
| 20260508000029 | 58 | 231 | 3.5 | 10.4 | 0.00 | 0.40 | 0.27 | 69 | 1012.9 |
| 20260507234528 | 59 | 222 | 3.5 | 8.7 | 0.00 | 0.45 | 0.27 | 69 | 1013.0 |
| 20260507233032 | 60 | 241 | 0.9 | 11.3 | 0.00 | 0.45 | 0.27 | 69 | 1012.8 |
| 20260507231530 | 60 | 22 | 4.3 | 11.3 | 0.00 | 0.45 | 0.27 | 68 | 1012.5 |
| 20260507230029 | 61 | 226 | 4.3 | 11.3 | 0.00 | 0.45 | 0.27 | 67 | 1012.5 |
| 20260507224530 | 62 | 253 | 4.3 | 13.0 | 0.00 | 0.48 | 0.27 | 66 | 1012.3 |
| 20260507223030 | 63 | 138 | 3.5 | 11.3 | 0.00 | 0.48 | 0.27 | 67 | 1011.9 |
| 20260507221531 | 65 | 151 | 3.5 | 13.0 | 0.00 | 0.48 | 0.27 | 66 | 1011.6 |
| 20260507220029 | 67 | 319 | 2.6 | 9.6 | 0.00 | 0.48 | 0.27 | 65 | 1011.2 |
| 20260507214530 | 68 | 309 | 2.6 | 10.4 | 0.00 | 0.48 | 0.27 | 64 | 1010.7 |
| 20260507213031 | 68 | 234 | 4.3 | 11.3 | 0.00 | 0.48 | 0.27 | 63 | 1010.5 |
| 20260507211528 | 70 | 163 | 2.6 | 11.3 | 0.00 | 0.48 | 0.27 | 64 | 1010.1 |